Year,Month,Day,Hour,Minute,Value (Times are PST for temperature in C)
2015,08,24,00,00,14.20
2015,08,24,00,01,14.10
2015,08,24,00,02,14.10
2015,08,24,00,03,14.10
2015,08,24,00,04,14.10
2015,08,24,00,05,14.10
2015,08,24,00,06,14.10
2015,08,24,00,07,14.00
2015,08,24,00,08,14.00
2015,08,24,00,09,14.00
2015,08,24,00,10,14.00
2015,08,24,00,11,13.90
2015,08,24,00,12,13.90
2015,08,24,00,13,13.90
2015,08,24,00,14,13.90
2015,08,24,00,15,13.90
2015,08,24,00,16,13.90
2015,08,24,00,17,13.80
2015,08,24,00,18,13.80
2015,08,24,00,19,13.80
2015,08,24,00,20,13.80
2015,08,24,00,21,13.80
2015,08,24,00,22,13.80
2015,08,24,00,23,13.70
2015,08,24,00,24,13.70
2015,08,24,00,25,13.70
2015,08,24,00,26,13.70
2015,08,24,00,27,13.70
2015,08,24,00,28,13.70
2015,08,24,00,29,13.70
2015,08,24,00,30,13.70
2015,08,24,00,31,13.70
2015,08,24,00,32,13.70
2015,08,24,00,33,13.70
2015,08,24,00,34,13.70
2015,08,24,00,35,13.70
2015,08,24,00,36,13.70
2015,08,24,00,37,13.70
2015,08,24,00,38,13.70
2015,08,24,00,39,13.70
2015,08,24,00,40,13.70
2015,08,24,00,41,13.70
2015,08,24,00,42,13.70
2015,08,24,00,43,13.70
2015,08,24,00,44,13.60
2015,08,24,00,45,13.60
2015,08,24,00,46,13.60
2015,08,24,00,47,13.60
2015,08,24,00,48,13.60
2015,08,24,00,49,13.60
2015,08,24,00,50,13.60
2015,08,24,00,51,13.60
2015,08,24,00,52,13.60
2015,08,24,00,53,13.60
2015,08,24,00,54,13.60
2015,08,24,00,55,13.60
2015,08,24,00,56,13.60
2015,08,24,00,57,13.60
2015,08,24,00,58,13.60
2015,08,24,00,59,13.60
2015,08,24,01,00,13.60
2015,08,24,01,01,13.60
2015,08,24,01,02,13.50
2015,08,24,01,03,13.50
2015,08,24,01,04,13.50
2015,08,24,01,05,13.50
2015,08,24,01,06,13.50
2015,08,24,01,07,13.40
2015,08,24,01,08,13.40
2015,08,24,01,09,13.40
2015,08,24,01,10,13.40
2015,08,24,01,11,13.40
2015,08,24,01,12,13.40
2015,08,24,01,13,13.40
2015,08,24,01,14,13.30
2015,08,24,01,15,13.30
2015,08,24,01,16,13.30
2015,08,24,01,17,13.30
2015,08,24,01,18,13.30
2015,08,24,01,19,13.30
2015,08,24,01,20,13.30
2015,08,24,01,21,13.20
2015,08,24,01,22,13.20
2015,08,24,01,23,13.10
2015,08,24,01,24,13.10
2015,08,24,01,25,13.10
2015,08,24,01,26,13.10
2015,08,24,01,27,13.00
2015,08,24,01,28,13.00
2015,08,24,01,29,13.00
2015,08,24,01,30,13.00
2015,08,24,01,31,12.90
2015,08,24,01,32,12.90
2015,08,24,01,33,12.90
2015,08,24,01,34,12.90
2015,08,24,01,35,12.90
2015,08,24,01,36,12.90
2015,08,24,01,37,12.90
2015,08,24,01,38,12.80
2015,08,24,01,39,12.80
2015,08,24,01,40,12.80
2015,08,24,01,41,12.80
2015,08,24,01,42,12.80
2015,08,24,01,43,12.80
2015,08,24,01,44,12.80
2015,08,24,01,45,12.80
2015,08,24,01,46,12.80
2015,08,24,01,47,12.80
2015,08,24,01,48,12.80
2015,08,24,01,49,12.80
2015,08,24,01,50,12.80
2015,08,24,01,51,12.80
2015,08,24,01,52,12.70
2015,08,24,01,53,12.70
2015,08,24,01,54,12.70
2015,08,24,01,55,12.70
2015,08,24,01,56,12.70
2015,08,24,01,57,12.70
2015,08,24,01,58,12.70
2015,08,24,01,59,12.70
2015,08,24,02,00,12.70
2015,08,24,02,01,12.70
2015,08,24,02,02,12.70
2015,08,24,02,03,12.70
2015,08,24,02,04,12.60
2015,08,24,02,05,12.60
2015,08,24,02,06,12.60
2015,08,24,02,07,12.60
2015,08,24,02,08,12.60
2015,08,24,02,09,12.60
2015,08,24,02,10,12.60
2015,08,24,02,11,12.60
2015,08,24,02,12,12.60
2015,08,24,02,13,12.60
2015,08,24,02,14,12.60
2015,08,24,02,15,12.60
2015,08,24,02,16,12.60
2015,08,24,02,17,12.60
2015,08,24,02,18,12.60
2015,08,24,02,19,12.50
2015,08,24,02,20,12.50
2015,08,24,02,21,12.50
2015,08,24,02,22,12.50
2015,08,24,02,23,12.50
2015,08,24,02,24,12.50
2015,08,24,02,25,12.40
2015,08,24,02,26,12.40
2015,08,24,02,27,12.40
2015,08,24,02,28,12.40
2015,08,24,02,29,12.40
2015,08,24,02,30,12.40
2015,08,24,02,31,12.30
2015,08,24,02,32,12.30
2015,08,24,02,33,12.30
2015,08,24,02,34,12.30
2015,08,24,02,35,12.30
2015,08,24,02,36,12.30
2015,08,24,02,37,12.30
2015,08,24,02,38,12.30
2015,08,24,02,39,12.30
2015,08,24,02,40,12.30
2015,08,24,02,41,12.30
2015,08,24,02,42,12.30
2015,08,24,02,43,12.30
2015,08,24,02,44,12.30
2015,08,24,02,45,12.30
2015,08,24,02,46,12.30
2015,08,24,02,47,12.30
2015,08,24,02,48,12.20
2015,08,24,02,49,12.20
2015,08,24,02,50,12.20
2015,08,24,02,51,12.20
2015,08,24,02,52,12.20
2015,08,24,02,53,12.20
2015,08,24,02,54,12.20
2015,08,24,02,55,12.20
2015,08,24,02,56,12.20
2015,08,24,02,57,12.20
2015,08,24,02,58,12.20
2015,08,24,02,59,12.20
2015,08,24,03,00,12.20
2015,08,24,03,01,12.20
2015,08,24,03,02,12.20
2015,08,24,03,03,12.20
2015,08,24,03,04,12.20
2015,08,24,03,05,12.20
2015,08,24,03,06,12.20
2015,08,24,03,07,12.20
2015,08,24,03,08,12.20
2015,08,24,03,09,12.20
2015,08,24,03,10,12.20
2015,08,24,03,11,12.20
2015,08,24,03,12,12.20
2015,08,24,03,13,12.20
2015,08,24,03,14,12.10
2015,08,24,03,15,12.10
2015,08,24,03,16,12.10
2015,08,24,03,17,12.10
2015,08,24,03,18,12.10
2015,08,24,03,19,12.10
2015,08,24,03,20,12.10
2015,08,24,03,21,12.10
2015,08,24,03,22,12.10
2015,08,24,03,23,12.10
2015,08,24,03,24,12.10
2015,08,24,03,25,12.10
2015,08,24,03,26,12.00
2015,08,24,03,27,12.00
2015,08,24,03,28,12.00
2015,08,24,03,29,11.90
2015,08,24,03,30,11.90
2015,08,24,03,31,11.90
2015,08,24,03,32,11.90
2015,08,24,03,33,11.90
2015,08,24,03,34,11.90
2015,08,24,03,35,11.90
2015,08,24,03,36,11.90
2015,08,24,03,37,11.90
2015,08,24,03,38,11.90
2015,08,24,03,39,11.90
2015,08,24,03,40,11.90
2015,08,24,03,41,11.90
2015,08,24,03,42,11.90
2015,08,24,03,43,11.80
2015,08,24,03,44,11.80
2015,08,24,03,45,11.80
2015,08,24,03,46,11.80
2015,08,24,03,47,11.80
2015,08,24,03,48,11.80
2015,08,24,03,49,11.80
2015,08,24,03,50,11.80
2015,08,24,03,51,11.80
2015,08,24,03,52,11.80
2015,08,24,03,53,11.80
2015,08,24,03,54,11.80
2015,08,24,03,55,11.80
2015,08,24,03,56,11.80
2015,08,24,03,57,11.80
2015,08,24,03,58,11.80
2015,08,24,03,59,11.80
2015,08,24,04,00,11.70
2015,08,24,04,01,11.70
2015,08,24,04,02,11.70
2015,08,24,04,03,11.70
2015,08,24,04,04,11.70
2015,08,24,04,05,11.70
2015,08,24,04,06,11.70
2015,08,24,04,07,11.70
2015,08,24,04,08,11.70
2015,08,24,04,09,11.70
2015,08,24,04,10,11.70
2015,08,24,04,11,11.70
2015,08,24,04,12,11.70
2015,08,24,04,13,11.60
2015,08,24,04,14,11.60
2015,08,24,04,15,11.60
2015,08,24,04,16,11.60
2015,08,24,04,17,11.60
2015,08,24,04,18,11.60
2015,08,24,04,19,11.60
2015,08,24,04,20,11.60
2015,08,24,04,21,11.50
2015,08,24,04,22,11.50
2015,08,24,04,23,11.50
2015,08,24,04,24,11.50
2015,08,24,04,25,11.50
2015,08,24,04,26,11.50
2015,08,24,04,27,11.50
2015,08,24,04,28,11.50
2015,08,24,04,29,11.50
2015,08,24,04,30,11.40
2015,08,24,04,31,11.40
2015,08,24,04,32,11.40
2015,08,24,04,33,11.40
2015,08,24,04,34,11.40
2015,08,24,04,35,11.40
2015,08,24,04,36,11.40
2015,08,24,04,37,11.40
2015,08,24,04,38,11.40
2015,08,24,04,39,11.40
2015,08,24,04,40,11.40
2015,08,24,04,41,11.40
2015,08,24,04,42,11.40
2015,08,24,04,43,11.40
2015,08,24,04,44,11.40
2015,08,24,04,45,11.40
2015,08,24,04,46,11.30
2015,08,24,04,47,11.30
2015,08,24,04,48,11.30
2015,08,24,04,49,11.30
2015,08,24,04,50,11.30
2015,08,24,04,51,11.30
2015,08,24,04,52,11.30
2015,08,24,04,53,11.20
2015,08,24,04,54,11.20
2015,08,24,04,55,11.30
2015,08,24,04,56,11.20
2015,08,24,04,57,11.20
2015,08,24,04,58,11.20
2015,08,24,04,59,11.20
2015,08,24,05,00,11.20
2015,08,24,05,01,11.20
2015,08,24,05,02,11.20
2015,08,24,05,03,11.20
2015,08,24,05,04,11.20
2015,08,24,05,05,11.20
2015,08,24,05,06,11.20
2015,08,24,05,07,11.20
2015,08,24,05,08,11.20
2015,08,24,05,09,11.20
2015,08,24,05,10,11.20
2015,08,24,05,11,11.10
2015,08,24,05,12,11.10
2015,08,24,05,13,11.10
2015,08,24,05,14,11.10
2015,08,24,05,15,11.10
2015,08,24,05,16,11.00
2015,08,24,05,17,11.00
2015,08,24,05,18,10.90
2015,08,24,05,19,10.90
2015,08,24,05,20,10.90
2015,08,24,05,21,10.90
2015,08,24,05,22,10.90
2015,08,24,05,23,10.80
2015,08,24,05,24,10.90
2015,08,24,05,25,10.90
2015,08,24,05,26,10.90
2015,08,24,05,27,10.90
2015,08,24,05,28,10.80
2015,08,24,05,29,10.80
2015,08,24,05,30,10.80
2015,08,24,05,31,10.80
2015,08,24,05,32,10.80
2015,08,24,05,33,10.80
2015,08,24,05,34,10.80
2015,08,24,05,35,10.80
2015,08,24,05,36,10.80
2015,08,24,05,37,10.80
2015,08,24,05,38,10.80
2015,08,24,05,39,10.80
2015,08,24,05,40,10.80
2015,08,24,05,41,10.80
2015,08,24,05,42,10.80
2015,08,24,05,43,10.80
2015,08,24,05,44,10.80
2015,08,24,05,45,10.80
2015,08,24,05,46,10.80
2015,08,24,05,47,10.70
2015,08,24,05,48,10.70
2015,08,24,05,49,10.70
2015,08,24,05,50,10.70
2015,08,24,05,51,10.70
2015,08,24,05,52,10.70
2015,08,24,05,53,10.70
2015,08,24,05,54,10.70
2015,08,24,05,55,10.70
2015,08,24,05,56,10.70
2015,08,24,05,57,10.70
2015,08,24,05,58,10.70
2015,08,24,05,59,10.70
2015,08,24,06,00,10.70
2015,08,24,06,01,10.60
2015,08,24,06,02,10.60
2015,08,24,06,03,10.60
2015,08,24,06,04,10.60
2015,08,24,06,05,10.60
2015,08,24,06,06,10.60
2015,08,24,06,07,10.60
2015,08,24,06,08,10.60
2015,08,24,06,09,10.60
2015,08,24,06,10,10.60
2015,08,24,06,11,10.60
2015,08,24,06,12,10.60
2015,08,24,06,13,10.60
2015,08,24,06,14,10.60
2015,08,24,06,15,10.50
2015,08,24,06,16,10.50
2015,08,24,06,17,10.50
2015,08,24,06,18,10.50
2015,08,24,06,19,10.50
2015,08,24,06,20,10.50
2015,08,24,06,21,10.50
2015,08,24,06,22,10.50
2015,08,24,06,23,10.50
2015,08,24,06,24,10.50
2015,08,24,06,25,10.50
2015,08,24,06,26,10.50
2015,08,24,06,27,10.40
2015,08,24,06,28,10.40
2015,08,24,06,29,10.40
2015,08,24,06,30,10.40
2015,08,24,06,31,10.40
2015,08,24,06,32,10.40
2015,08,24,06,33,10.40
2015,08,24,06,34,10.40
2015,08,24,06,35,10.40
2015,08,24,06,36,10.40
2015,08,24,06,37,10.40
2015,08,24,06,38,10.40
2015,08,24,06,39,10.40
2015,08,24,06,40,10.40
2015,08,24,06,41,10.40
2015,08,24,06,42,10.40
2015,08,24,06,43,10.40
2015,08,24,06,44,10.40
2015,08,24,06,45,10.40
2015,08,24,06,46,10.40
2015,08,24,06,47,10.40
2015,08,24,06,48,10.40
2015,08,24,06,49,10.40
2015,08,24,06,50,10.40
2015,08,24,06,51,10.40
2015,08,24,06,52,10.40
2015,08,24,06,53,10.40
2015,08,24,06,54,10.50
2015,08,24,06,55,10.50
2015,08,24,06,56,10.50
2015,08,24,06,57,10.50
2015,08,24,06,58,10.50
2015,08,24,06,59,10.50
2015,08,24,07,00,10.50
2015,08,24,07,01,10.50
2015,08,24,07,02,10.60
2015,08,24,07,03,10.60
2015,08,24,07,04,10.60
2015,08,24,07,05,10.60
2015,08,24,07,06,10.60
2015,08,24,07,07,10.60
2015,08,24,07,08,10.60
2015,08,24,07,09,10.60
2015,08,24,07,10,10.60
2015,08,24,07,11,10.60
2015,08,24,07,12,10.70
2015,08,24,07,13,10.70
2015,08,24,07,14,10.70
2015,08,24,07,15,10.70
2015,08,24,07,16,10.70
2015,08,24,07,17,10.70
2015,08,24,07,18,10.70
2015,08,24,07,19,10.80
2015,08,24,07,20,10.80
2015,08,24,07,21,10.80
2015,08,24,07,22,10.90
2015,08,24,07,23,10.90
2015,08,24,07,24,10.90
2015,08,24,07,25,10.90
2015,08,24,07,26,10.90
2015,08,24,07,27,10.90
2015,08,24,07,28,11.00
2015,08,24,07,29,11.00
2015,08,24,07,30,11.00
2015,08,24,07,31,11.00
2015,08,24,07,32,11.10
2015,08,24,07,33,11.10
2015,08,24,07,34,11.10
2015,08,24,07,35,11.10
2015,08,24,07,36,11.10
2015,08,24,07,37,11.10
2015,08,24,07,38,11.20
2015,08,24,07,39,11.20
2015,08,24,07,40,11.20
2015,08,24,07,41,11.30
2015,08,24,07,42,11.30
2015,08,24,07,43,11.30
2015,08,24,07,44,11.30
2015,08,24,07,45,11.40
2015,08,24,07,46,11.40
2015,08,24,07,47,11.40
2015,08,24,07,48,11.50
2015,08,24,07,49,11.50
2015,08,24,07,50,11.60
2015,08,24,07,51,11.60
2015,08,24,07,52,11.60
2015,08,24,07,53,11.70
2015,08,24,07,54,11.70
2015,08,24,07,55,11.80
2015,08,24,07,56,11.80
2015,08,24,07,57,11.90
2015,08,24,07,58,11.90
2015,08,24,07,59,11.90
2015,08,24,08,00,12.00
2015,08,24,08,01,12.00
2015,08,24,08,02,12.10
2015,08,24,08,03,12.10
2015,08,24,08,04,12.10
2015,08,24,08,05,12.20
2015,08,24,08,06,12.20
2015,08,24,08,07,12.20
2015,08,24,08,08,12.30
2015,08,24,08,09,12.30
2015,08,24,08,10,12.30
2015,08,24,08,11,12.40
2015,08,24,08,12,12.40
2015,08,24,08,13,12.50
2015,08,24,08,14,12.50
2015,08,24,08,15,12.60
2015,08,24,08,16,12.60
2015,08,24,08,17,12.60
2015,08,24,08,18,12.70
2015,08,24,08,19,12.70
2015,08,24,08,20,12.70
2015,08,24,08,21,12.80
2015,08,24,08,22,12.80
2015,08,24,08,23,12.80
2015,08,24,08,24,12.90
2015,08,24,08,25,13.00
2015,08,24,08,26,13.00
2015,08,24,08,27,13.10
2015,08,24,08,28,13.10
2015,08,24,08,29,13.20
2015,08,24,08,30,13.30
2015,08,24,08,31,13.30
2015,08,24,08,32,13.40
2015,08,24,08,33,13.50
2015,08,24,08,34,13.60
2015,08,24,08,35,13.70
2015,08,24,08,36,13.70
2015,08,24,08,37,13.80
2015,08,24,08,38,13.90
2015,08,24,08,39,13.90
2015,08,24,08,40,14.00
2015,08,24,08,41,14.00
2015,08,24,08,42,14.10
2015,08,24,08,43,14.10
2015,08,24,08,44,14.20
2015,08,24,08,45,14.20
2015,08,24,08,46,14.30
2015,08,24,08,47,14.30
2015,08,24,08,48,14.40
2015,08,24,08,49,14.50
2015,08,24,08,50,14.50
2015,08,24,08,51,14.60
2015,08,24,08,52,14.70
2015,08,24,08,53,14.70
2015,08,24,08,54,14.80
2015,08,24,08,55,14.90
2015,08,24,08,56,14.90
2015,08,24,08,57,15.00
2015,08,24,08,58,15.10
2015,08,24,08,59,15.10
2015,08,24,09,00,15.20
2015,08,24,09,01,15.20
2015,08,24,09,02,15.30
2015,08,24,09,03,15.30
2015,08,24,09,04,15.30
2015,08,24,09,05,15.30
2015,08,24,09,06,15.40
2015,08,24,09,07,15.40
2015,08,24,09,08,15.40
2015,08,24,09,09,15.50
2015,08,24,09,10,15.50
2015,08,24,09,11,15.60
2015,08,24,09,12,15.60
2015,08,24,09,13,15.70
2015,08,24,09,14,15.70
2015,08,24,09,15,15.70
2015,08,24,09,16,15.80
2015,08,24,09,17,15.80
2015,08,24,09,18,15.90
2015,08,24,09,19,16.00
2015,08,24,09,20,16.00
2015,08,24,09,21,16.10
2015,08,24,09,22,16.20
2015,08,24,09,23,16.20
2015,08,24,09,24,16.30
2015,08,24,09,25,16.30
2015,08,24,09,26,16.40
2015,08,24,09,27,16.40
2015,08,24,09,28,16.40
2015,08,24,09,29,16.40
2015,08,24,09,30,16.40
2015,08,24,09,31,16.40
2015,08,24,09,32,16.40
2015,08,24,09,33,16.40
2015,08,24,09,34,16.40
2015,08,24,09,35,16.40
2015,08,24,09,36,16.40
2015,08,24,09,37,16.50
2015,08,24,09,38,16.50
2015,08,24,09,39,16.50
2015,08,24,09,40,16.40
2015,08,24,09,41,16.40
2015,08,24,09,42,16.40
2015,08,24,09,43,16.40
2015,08,24,09,44,16.30
2015,08,24,09,45,16.30
2015,08,24,09,46,16.30
2015,08,24,09,47,16.20
2015,08,24,09,48,16.20
2015,08,24,09,49,16.20
2015,08,24,09,50,16.10
2015,08,24,09,51,16.10
2015,08,24,09,52,16.10
2015,08,24,09,53,16.10
2015,08,24,09,54,16.10
2015,08,24,09,55,16.00
2015,08,24,09,56,16.00
2015,08,24,09,57,16.00
2015,08,24,09,58,16.00
2015,08,24,09,59,16.00
2015,08,24,10,00,16.00
2015,08,24,10,01,16.00
2015,08,24,10,02,16.10
2015,08,24,10,03,16.20
2015,08,24,10,04,16.20
2015,08,24,10,05,16.30
2015,08,24,10,06,16.30
2015,08,24,10,07,16.30
2015,08,24,10,08,16.30
2015,08,24,10,09,16.30
2015,08,24,10,10,16.40
2015,08,24,10,11,16.40
2015,08,24,10,12,16.40
2015,08,24,10,13,16.50
2015,08,24,10,14,16.50
2015,08,24,10,15,16.60
2015,08,24,10,16,16.60
2015,08,24,10,17,16.70
2015,08,24,10,18,16.70
2015,08,24,10,19,16.80
2015,08,24,10,20,16.80
2015,08,24,10,21,16.80
2015,08,24,10,22,16.90
2015,08,24,10,23,17.00
2015,08,24,10,24,17.10
2015,08,24,10,25,17.20
2015,08,24,10,26,17.20
2015,08,24,10,27,17.20
2015,08,24,10,28,17.30
2015,08,24,10,29,17.30
2015,08,24,10,30,17.30
2015,08,24,10,31,17.30
2015,08,24,10,32,17.20
2015,08,24,10,33,17.20
2015,08,24,10,34,17.20
2015,08,24,10,35,17.20
2015,08,24,10,36,17.10
2015,08,24,10,37,17.10
2015,08,24,10,38,17.10
2015,08,24,10,39,17.20
2015,08,24,10,40,17.20
2015,08,24,10,41,17.20
2015,08,24,10,42,17.20
2015,08,24,10,43,17.20
2015,08,24,10,44,17.30
2015,08,24,10,45,17.30
2015,08,24,10,46,17.30
2015,08,24,10,47,17.40
2015,08,24,10,48,17.40
2015,08,24,10,49,17.40
2015,08,24,10,50,17.40
2015,08,24,10,51,17.40
2015,08,24,10,52,17.40
2015,08,24,10,53,17.40
2015,08,24,10,54,17.40
2015,08,24,10,55,17.40
2015,08,24,10,56,17.40
2015,08,24,10,57,17.40
2015,08,24,10,58,17.40
2015,08,24,10,59,17.40
2015,08,24,11,00,17.40
2015,08,24,11,01,17.40
2015,08,24,11,02,17.50
2015,08,24,11,03,17.50
2015,08,24,11,04,17.60
2015,08,24,11,05,17.60
2015,08,24,11,06,17.60
2015,08,24,11,07,17.50
2015,08,24,11,08,17.50
2015,08,24,11,09,17.50
2015,08,24,11,10,17.60
2015,08,24,11,11,17.60
2015,08,24,11,12,17.60
2015,08,24,11,13,17.50
2015,08,24,11,14,17.50
2015,08,24,11,15,17.50
2015,08,24,11,16,17.50
2015,08,24,11,17,17.50
2015,08,24,11,18,17.50
2015,08,24,11,19,17.50
2015,08,24,11,20,17.60
2015,08,24,11,21,17.60
2015,08,24,11,22,17.60
2015,08,24,11,23,17.60
2015,08,24,11,24,17.70
2015,08,24,11,25,17.70
2015,08,24,11,26,17.70
2015,08,24,11,27,17.70
2015,08,24,11,28,17.80
2015,08,24,11,29,17.80
2015,08,24,11,30,17.80
2015,08,24,11,31,17.80
2015,08,24,11,32,17.80
2015,08,24,11,33,17.80
2015,08,24,11,34,17.80
2015,08,24,11,35,17.80
2015,08,24,11,36,17.80
2015,08,24,11,37,17.80
2015,08,24,11,38,17.80
2015,08,24,11,39,17.90
2015,08,24,11,40,17.90
2015,08,24,11,41,17.90
2015,08,24,11,42,17.90
2015,08,24,11,43,17.90
2015,08,24,11,44,17.90
2015,08,24,11,45,18.00
2015,08,24,11,46,17.90
2015,08,24,11,47,17.90
2015,08,24,11,48,17.90
2015,08,24,11,49,17.90
2015,08,24,11,50,17.90
2015,08,24,11,51,17.90
2015,08,24,11,52,17.90
2015,08,24,11,53,18.00
2015,08,24,11,54,18.00
2015,08,24,11,55,18.00
2015,08,24,11,56,18.10
2015,08,24,11,57,18.10
2015,08,24,11,58,18.10
2015,08,24,11,59,18.20
2015,08,24,12,00,18.20
2015,08,24,12,01,18.20
2015,08,24,12,02,18.20
2015,08,24,12,03,18.30
2015,08,24,12,04,18.30
2015,08,24,12,05,18.30
2015,08,24,12,06,18.30
2015,08,24,12,07,18.30
2015,08,24,12,08,18.40
2015,08,24,12,09,18.30
2015,08,24,12,10,18.30
2015,08,24,12,11,18.30
2015,08,24,12,12,18.40
2015,08,24,12,13,18.40
2015,08,24,12,14,18.40
2015,08,24,12,15,18.40
2015,08,24,12,16,18.50
2015,08,24,12,17,18.40
2015,08,24,12,18,18.40
2015,08,24,12,19,18.50
2015,08,24,12,20,18.50
2015,08,24,12,21,18.60
2015,08,24,12,22,18.60
2015,08,24,12,23,18.60
2015,08,24,12,24,18.70
2015,08,24,12,25,18.70
2015,08,24,12,26,18.70
2015,08,24,12,27,18.70
2015,08,24,12,28,18.70
2015,08,24,12,29,18.60
2015,08,24,12,30,18.60
2015,08,24,12,31,18.60
2015,08,24,12,32,18.60
2015,08,24,12,33,18.60
2015,08,24,12,34,18.50
2015,08,24,12,35,18.50
2015,08,24,12,36,18.40
2015,08,24,12,37,18.30
2015,08,24,12,38,18.30
2015,08,24,12,39,18.30
2015,08,24,12,40,18.30
2015,08,24,12,41,18.30
2015,08,24,12,42,18.30
2015,08,24,12,43,18.30
2015,08,24,12,44,18.40
2015,08,24,12,45,18.40
2015,08,24,12,46,18.40
2015,08,24,12,47,18.40
2015,08,24,12,48,18.40
2015,08,24,12,49,18.40
2015,08,24,12,50,18.50
2015,08,24,12,51,18.50
2015,08,24,12,52,18.50
2015,08,24,12,53,18.50
2015,08,24,12,54,18.50
2015,08,24,12,55,18.50
2015,08,24,12,56,18.60
2015,08,24,12,57,18.60
2015,08,24,12,58,18.70
2015,08,24,12,59,18.70
2015,08,24,13,00,18.80
2015,08,24,13,01,18.80
2015,08,24,13,02,18.80
2015,08,24,13,03,18.80
2015,08,24,13,04,18.90
2015,08,24,13,05,19.00
2015,08,24,13,06,19.00
2015,08,24,13,07,19.00
2015,08,24,13,08,19.00
2015,08,24,13,09,19.00
2015,08,24,13,10,19.00
2015,08,24,13,11,18.90
2015,08,24,13,12,18.90
2015,08,24,13,13,18.90
2015,08,24,13,14,18.80
2015,08,24,13,15,18.80
2015,08,24,13,16,18.90
2015,08,24,13,17,18.90
2015,08,24,13,18,18.90
2015,08,24,13,19,19.00
2015,08,24,13,20,19.10
2015,08,24,13,21,19.20
2015,08,24,13,22,19.20
2015,08,24,13,23,19.30
2015,08,24,13,24,19.30
2015,08,24,13,25,19.50
2015,08,24,13,26,19.50
2015,08,24,13,27,19.60
2015,08,24,13,28,19.70
2015,08,24,13,29,19.80
2015,08,24,13,30,19.80
2015,08,24,13,31,19.80
2015,08,24,13,32,19.80
2015,08,24,13,33,19.70
2015,08,24,13,34,19.70
2015,08,24,13,35,19.60
2015,08,24,13,36,19.50
2015,08,24,13,37,19.50
2015,08,24,13,38,19.40
2015,08,24,13,39,19.40
2015,08,24,13,40,19.50
2015,08,24,13,41,19.50
2015,08,24,13,42,19.50
2015,08,24,13,43,19.40
2015,08,24,13,44,19.40
2015,08,24,13,45,19.30
2015,08,24,13,46,19.20
2015,08,24,13,47,19.10
2015,08,24,13,48,19.10
2015,08,24,13,49,19.00
2015,08,24,13,50,19.00
2015,08,24,13,51,19.00
2015,08,24,13,52,18.90
2015,08,24,13,53,18.90
2015,08,24,13,54,18.90
2015,08,24,13,55,18.90
2015,08,24,13,56,18.80
2015,08,24,13,57,18.80
2015,08,24,13,58,18.80
2015,08,24,13,59,18.90
2015,08,24,14,00,18.90
2015,08,24,14,01,18.90
2015,08,24,14,02,18.90
2015,08,24,14,03,19.00
2015,08,24,14,04,19.00
2015,08,24,14,05,19.10
2015,08,24,14,06,19.10
2015,08,24,14,07,19.10
2015,08,24,14,08,19.10
2015,08,24,14,09,19.10
2015,08,24,14,10,19.10
2015,08,24,14,11,19.10
2015,08,24,14,12,19.10
2015,08,24,14,13,19.10
2015,08,24,14,14,19.20
2015,08,24,14,15,19.20
2015,08,24,14,16,19.30
2015,08,24,14,17,19.30
2015,08,24,14,18,19.40
2015,08,24,14,19,19.50
2015,08,24,14,20,19.50
2015,08,24,14,21,19.60
2015,08,24,14,22,19.60
2015,08,24,14,23,19.70
2015,08,24,14,24,19.70
2015,08,24,14,25,19.70
2015,08,24,14,26,19.70
2015,08,24,14,27,19.70
2015,08,24,14,28,19.80
2015,08,24,14,29,19.80
2015,08,24,14,30,19.80
2015,08,24,14,31,19.80
2015,08,24,14,32,19.80
2015,08,24,14,33,19.80
2015,08,24,14,34,19.90
2015,08,24,14,35,19.90
2015,08,24,14,36,19.90
2015,08,24,14,37,20.00
2015,08,24,14,38,20.00
2015,08,24,14,39,20.10
2015,08,24,14,40,20.10
2015,08,24,14,41,20.10
2015,08,24,14,42,20.20
2015,08,24,14,43,20.10
2015,08,24,14,44,20.10
2015,08,24,14,45,20.10
2015,08,24,14,46,20.10
2015,08,24,14,47,20.20
2015,08,24,14,48,20.20
2015,08,24,14,49,20.20
2015,08,24,14,50,20.30
2015,08,24,14,51,20.30
2015,08,24,14,52,20.30
2015,08,24,14,53,20.30
2015,08,24,14,54,20.30
2015,08,24,14,55,20.30
2015,08,24,14,56,20.30
2015,08,24,14,57,20.30
2015,08,24,14,58,20.20
2015,08,24,14,59,20.20
2015,08,24,15,00,20.20
2015,08,24,15,01,20.20
2015,08,24,15,02,20.20
2015,08,24,15,03,20.20
2015,08,24,15,04,20.10
2015,08,24,15,05,20.10
2015,08,24,15,06,20.00
2015,08,24,15,07,19.90
2015,08,24,15,08,19.80
2015,08,24,15,09,19.80
2015,08,24,15,10,19.80
2015,08,24,15,11,19.70
2015,08,24,15,12,19.70
2015,08,24,15,13,19.70
2015,08,24,15,14,19.70
2015,08,24,15,15,19.70
2015,08,24,15,16,19.70
2015,08,24,15,17,19.80
2015,08,24,15,18,19.80
2015,08,24,15,19,19.90
2015,08,24,15,20,19.90
2015,08,24,15,21,19.90
2015,08,24,15,22,20.00
2015,08,24,15,23,20.00
2015,08,24,15,24,20.00
2015,08,24,15,25,20.10
2015,08,24,15,26,20.10
2015,08,24,15,27,20.10
2015,08,24,15,28,20.20
2015,08,24,15,29,20.20
2015,08,24,15,30,20.20
2015,08,24,15,31,20.20
2015,08,24,15,32,20.20
2015,08,24,15,33,20.10
2015,08,24,15,34,20.00
2015,08,24,15,35,19.90
2015,08,24,15,36,19.80
2015,08,24,15,37,19.80
2015,08,24,15,38,19.80
2015,08,24,15,39,19.70
2015,08,24,15,40,19.70
2015,08,24,15,41,19.60
2015,08,24,15,42,19.60
2015,08,24,15,43,19.60
2015,08,24,15,44,19.60
2015,08,24,15,45,19.60
2015,08,24,15,46,19.60
2015,08,24,15,47,19.60
2015,08,24,15,48,19.70
2015,08,24,15,49,19.70
2015,08,24,15,50,19.70
2015,08,24,15,51,19.80
2015,08,24,15,52,19.80
2015,08,24,15,53,19.90
2015,08,24,15,54,19.90
2015,08,24,15,55,19.90
2015,08,24,15,56,19.90
2015,08,24,15,57,19.90
2015,08,24,15,58,19.80
2015,08,24,15,59,19.80
2015,08,24,16,00,19.80
2015,08,24,16,01,19.80
2015,08,24,16,02,19.80
2015,08,24,16,03,19.80
2015,08,24,16,04,19.80
2015,08,24,16,05,19.80
2015,08,24,16,06,19.80
2015,08,24,16,07,19.80
2015,08,24,16,08,19.80
2015,08,24,16,09,19.70
2015,08,24,16,10,19.60
2015,08,24,16,11,19.50
2015,08,24,16,12,19.40
2015,08,24,16,13,19.40
2015,08,24,16,14,19.40
2015,08,24,16,15,19.30
2015,08,24,16,16,19.30
2015,08,24,16,17,19.30
2015,08,24,16,18,19.20
2015,08,24,16,19,19.20
2015,08,24,16,20,19.20
2015,08,24,16,21,19.20
2015,08,24,16,22,19.20
2015,08,24,16,23,19.30
2015,08,24,16,24,19.30
2015,08,24,16,25,19.40
2015,08,24,16,26,19.40
2015,08,24,16,27,19.40
2015,08,24,16,28,19.40
2015,08,24,16,29,19.40
2015,08,24,16,30,19.40
2015,08,24,16,31,19.30
2015,08,24,16,32,19.30
2015,08,24,16,33,19.20
2015,08,24,16,34,19.20
2015,08,24,16,35,19.20
2015,08,24,16,36,19.20
2015,08,24,16,37,19.20
2015,08,24,16,38,19.30
2015,08,24,16,39,19.30
2015,08,24,16,40,19.40
2015,08,24,16,41,19.50
2015,08,24,16,42,19.50
2015,08,24,16,43,19.40
2015,08,24,16,44,19.40
2015,08,24,16,45,19.40
2015,08,24,16,46,19.30
2015,08,24,16,47,19.30
2015,08,24,16,48,19.30
2015,08,24,16,49,19.20
2015,08,24,16,50,19.20
2015,08,24,16,51,19.20
2015,08,24,16,52,19.20
2015,08,24,16,53,19.10
2015,08,24,16,54,19.10
2015,08,24,16,55,19.10
2015,08,24,16,56,19.10
2015,08,24,16,57,19.10
2015,08,24,16,58,19.10
2015,08,24,16,59,19.10
2015,08,24,17,00,19.10
2015,08,24,17,01,19.10
2015,08,24,17,02,19.10
2015,08,24,17,03,19.10
2015,08,24,17,04,19.10
2015,08,24,17,05,19.20
2015,08,24,17,06,19.30
2015,08,24,17,07,19.40
2015,08,24,17,08,19.40
2015,08,24,17,09,19.50
2015,08,24,17,10,19.60
2015,08,24,17,11,19.70
2015,08,24,17,12,19.80
2015,08,24,17,13,19.80
2015,08,24,17,14,20.00
2015,08,24,17,15,20.10
2015,08,24,17,16,20.20
2015,08,24,17,17,20.30
2015,08,24,17,18,20.30
2015,08,24,17,19,20.40